Weather in Orekhovo

Russia / Volgograd Oblast     50°28′24″N   44°25′27″E
temp.,
°C
wind,
m/s
gust,
m/s
humid.,
%
clouds,
%
prec.,
mm/h
press.,
hPa
HPBL,
m
27 february, sat
sat2700:00+3wsw71699100 0.4 1008373
03:00+2wnw61496100 0.5 1008455
06:000w51295100 0.0 1007320
09:00+1w61393100 0.0 1007700
12:00+1w71293100 0.0 1006660
15:00+2w71289100 0.1 1006833
18:00+1w7149199 0.1 1006728
21:00−2nw91581100 0.4 1008907
28 february, sun
sun2800:00−7nw7118446 0.0 1009623
03:00−8nw6118563 0.0 1012576
06:00−9nnw598679 0.0 1013537
09:00−9nnw588373 0.0 1014494
12:00−8nw577833 0.0 1015533
15:00−7nw577940 0.0 1016534
18:00−8nnw368661 0.0 1017429
21:00−9nnw358842 0.0 1019342
1 march, mon
mon100:00−10n358867 0.0 1020334
03:00−11nnw248845 0.0 1021207
06:00−11nnw238910 0.0 1023157
09:00−10n34825 0.0 1024292
12:00−8nnw347551 0.0 1025512
15:00−6nw347572 0.0 1025543
18:00−8nnw248877 0.0 1026171
21:00−9wnw129245 0.0 102748
2 march, tue
tue200:00−9w23930 0.0 102677
03:00−9wsw35940 0.0 1025116
06:00−7sw4109391 0.0 1023206
09:00−4wsw7139096 0.0 1020522
12:00−1wsw91481100 0.0 1017802
15:00−1wsw91595100 1.0 1013893
18:00−1wsw91596100 1.6 1010770
21:000wnw61198100 3.1 1008487
3 march, wed
wed300:00−1wnw6119599 0.5 1008481
03:00−2nw6129298 0.8 1008625
06:00−2nw61191100 0.1 1009681
09:00−2nw71089100 0.1 1011897
12:00−1nw7988100 0.1 1012787
15:00−1nw7108499 0.3 1014982
18:00−3nw61189100 0.1 1015640
21:00−4nw61190100 0.2 1017833